[[{"header":{"parameterUnit":"m.s-1","parameterCategory":1,"la1":30.2991,"la2":30.254,"lo1":-89.0895,"lo2":-89.0444,"dy":0.0017,"dx":0.0017,"nx":28,"ny":28,"refTime":"2024-05-03T03:00:00:Z","depth":0,"parameterNumber":2,"parameterNumberName":"U-component_of_WINDS"},"data":[0,0,0,0,0,0,0,0,0,0,0,0,0,0,0,0,0,0,0,0,0,0,0,0,0,0,0,0,0,0,0,0,0,0,0,0,0,0,0,0,0,0,0,0,0,0,0,0,0,0,0,0,0,0,0,0,0,0,-1.3061,-1.3061,0,-1.304,-1.304,-1.3039,-1.2988,-1.2987,-1.2985,-1.2984,-1.2964,-1.2964,-1.2965,0,0,0,0,0,0,0,0,0,0,0,0,0,-1.306,-1.306,-1.3062,-1.3061,-1.3061,-1.304,-1.3039,-1.3039,-1.2988,-1.2986,-1.2985,-1.2984,-1.2964,-1.2964,-1.2965,0,0,0,0,0,0,0,0,0,0,0,0,0,-1.3052,-1.3061,-1.3062,-1.3033,-1.303,-1.304,-1.3039,-1.3039,-1.2988,-1.2986,-1.2985,-1.2983,-1.2964,-1.2964,-1.2965,-1.3002,0,0,-1.2967,-1.2967,0,0,0,0,0,0,0,0,-1.3052,-1.3052,-1.3037,-1.3035,-1.3032,-1.3015,-1.3031,-1.3027,-1.2988,-1.3004,-1.2984,-1.2982,-1.2982,-1.2981,-1.2981,-1.3001,-1.3,-1.2967,-1.2967,-1.2968,-1.2968,0,0,0,0,0,0,0,-1.3053,-1.3053,-1.3053,-1.3037,-1.3034,-1.3021,-1.3018,-1.303,-1.3003,-1.3003,-1.2999,-1.2997,-1.298,-1.298,-1.298,-1.2999,-1.2967,-1.2968,-1.2968,-1.2968,-1.3048,-1.305,0,0,0,0,0,0,-1.3058,-1.3053,-1.3054,-1.3052,-1.3038,-1.3023,-1.3019,-1.3022,-1.3002,-1.2998,-1.2998,-1.2994,-1.298,-1.2979,-1.2979,-1.3021,-1.2968,-1.2968,-1.2969,-1.3047,-1.3049,-1.3051,0,0,0,0,0,0,-1.3058,-1.3058,-1.3054,-1.3052,-1.305,-1.3024,-1.3028,-1.3022,-1.3022,-1.2999,-1.2994,-1.3003,-1.2979,-1.2978,-1.2996,-1.3019,-1.2969,-1.2969,-1.3045,-1.3047,-1.305,-1.3105,0,0,0,0,0,0,-1.3058,-1.3058,-1.3072,-1.3052,-1.3051,-1.3072,-1.3029,-1.3023,-1.3023,-1.3018,-1.3002,-1.2998,-1.2977,-1.2996,-1.2997,-1.3019,-1.297,-1.3043,-1.3046,-1.3049,-1.3101,-1.3109,-1.3116,0,0,0,0,0,-1.3058,-1.3088,-1.3073,-1.3073,-1.3067,-1.3073,-1.3072,-1.3047,-1.3025,-1.3039,-1.3024,-1.2998,-1.3017,-1.2998,-1.2999,-1.3022,-1.3041,-1.3045,-1.3049,-1.3097,-1.3107,-1.3115,0,0,0,0,0,0,-1.3112,-1.3085,-1.3068,-1.3093,-1.3085,-1.3064,-1.3081,-1.3059,-1.3058,-1.3053,-1.3023,-1.302,-1.3042,-1.3034,-1.3013,-1.3056,-1.3025,-1.3029,-1.3061,-1.307,-1.3078,-1.3079,-1.297,0,0,0,0,0,-1.3126,-1.3133,-1.311,-1.3134,-1.3132,-1.3107,-1.3109,-1.309,-1.3082,-1.3079,-1.3065,-1.3059,-1.3063,-1.3066,-1.3068,-1.3099,-1.3095,-1.3115,-1.3123,-1.3129,-1.3133,-1.3149,-1.3158,-1.3063,-1.3063,-1.3063,0,0,-1.3157,-1.3143,-1.315,-1.3145,-1.3137,-1.3145,-1.3105,-1.3115,-1.3121,-1.308,-1.3097,-1.3087,-1.3077,-1.3102,-1.3112,-1.3096,-1.3159,-1.3134,-1.3139,-1.314,-1.3154,-1.3163,-1.3171,-1.3066,-1.3066,-1.3065,0,0,-1.3216,-1.3207,-1.3226,-1.3219,-1.3208,-1.3191,-1.3196,-1.3178,-1.317,-1.3185,-1.3155,-1.3162,-1.317,-1.3164,-1.3162,-1.322,-1.3197,-1.3222,-1.3261,-1.3277,-1.3284,-1.3291,-1.3312,-1.3319,-1.3226,-1.3226,-1.3226,0,-1.3256,-1.3267,-1.3239,-1.3251,-1.325,-1.3213,-1.3232,-1.3227,-1.3218,-1.3218,-1.3199,-1.3208,-1.3199,-1.3222,-1.3236,-1.3236,-1.3241,-1.3224,-1.3285,-1.3292,-1.3297,-1.3317,-1.3325,-1.3229,-1.3229,-1.3229,-1.3228,0,-1.3316,-1.3324,-1.3341,-1.3332,-1.3333,-1.3349,-1.3324,-1.3328,-1.3309,-1.3295,-1.3312,-1.3299,-1.3299,-1.3303,-1.3285,-1.3323,-1.3313,-1.3291,-1.3258,-1.331,-1.3328,-1.3335,-1.3234,-1.3233,-1.3232,-1.3231,0,0,-1.3409,-1.3384,-1.3391,-1.3386,-1.3371,-1.3377,-1.3391,-1.339,-1.3395,-1.3389,-1.3401,-1.3408,-1.3387,-1.3385,-1.3366,-1.338,-1.3427,-1.3356,-1.3355,-1.3369,-1.3469,-1.3486,-1.3495,-1.3411,-1.3413,-1.3414,-1.347,0,-1.3465,-1.3488,-1.3463,-1.3491,-1.3498,-1.3463,-1.3476,-1.3468,-1.3455,-1.346,-1.3445,-1.3451,-1.3423,-1.3421,-1.3433,-1.3419,-1.3447,-1.3414,-1.3422,-1.3423,-1.3426,-1.3504,-1.3523,-1.3576,-1.3476,-1.3477,-1.3478,0,-1.3534,-1.3531,-1.356,-1.3543,-1.3545,-1.3556,-1.3553,-1.3558,-1.3549,-1.3538,-1.3536,-1.3513,-1.3527,-1.3495,-1.3514,-1.3492,-1.3494,-1.3488,-1.3489,-1.3489,-1.3454,-1.3507,-1.3592,-1.36,-1.3489,-1.3488,-1.3487,0,-1.3599,-1.3603,-1.362,-1.3617,-1.3598,-1.3607,-1.3599,-1.3588,-1.3589,-1.3587,-1.3587,-1.3587,-1.3587,-1.3587,-1.3565,-1.3544,-1.3586,-1.3552,-1.3578,-1.3579,-1.3589,-1.3588,-1.3676,-1.359,-1.359,-1.359,-1.3589,0,-1.3664,-1.3684,-1.3649,-1.366,-1.368,-1.3652,-1.3673,-1.3662,-1.3653,-1.3661,-1.3631,-1.3639,-1.3609,-1.3615,-1.3598,-1.3616,-1.3616,-1.3608,-1.3603,-1.3611,-1.3612,-1.3612,-1.3608,-1.3592,-1.3591,-1.3591,-1.359,0,-1.3741,-1.3719,-1.3735,-1.3715,-1.3711,-1.3727,-1.371,-1.3719,-1.3704,-1.3715,-1.3716,-1.3693,-1.3698,-1.3675,-1.3677,-1.3665,-1.3692,-1.3681,-1.3695,-1.3692,-1.3719,-1.3717,-1.381,-1.3821,-1.3727,-1.3728,-1.3729,0,-1.3784,-1.3798,-1.3779,-1.3782,-1.3776,-1.3782,-1.3782,-1.3755,-1.3757,-1.3748,-1.3758,-1.3761,-1.3761,-1.3771,-1.3755,-1.3756,-1.3744,-1.3777,-1.3744,-1.3752,-1.3745,-1.3745,-1.3746,-1.3784,-1.3785,-1.3786,-1.3787,0,-1.3864,-1.3852,-1.3854,-1.3852,-1.3853,-1.3851,-1.3846,-1.385,-1.3821,-1.3825,-1.3829,-1.383,-1.3831,-1.3834,-1.3831,-1.3824,-1.3801,-1.3797,-1.3803,-1.3811,-1.3819,-1.3815,-1.3714,-1.3795,-1.3794,-1.3794,-1.3793,-1.3793,-1.3925,-1.3936,-1.3924,-1.3927,-1.392,-1.3917,-1.3925,-1.391,-1.3913,-1.3912,-1.3895,-1.3903,-1.3894,-1.3888,-1.3883,-1.3888,-1.3873,-1.3882,-1.3884,-1.3887,-1.3892,-1.3818,-1.3888,-1.3888,-1.3887,-1.3887,-1.3887,0,-1.4003,-1.3994,-1.3997,-1.3991,-1.3993,-1.3971,-1.3964,-1.3968,-1.3975,-1.3968,-1.3969,-1.3974,-1.3977,-1.396,-1.3961,-1.3969,-1.3958,-1.397,-1.3969,-1.3968,-1.3905,-1.39,-1.3978,-1.3978,-1.3978,-1.3978,-1.3978,-1.3978,-1.4044,-1.4061,-1.4048,-1.4061,-1.4051,-1.4058,-1.4057,-1.4053,-1.4047,-1.4054,-1.4056,-1.4045,-1.4034,-1.4034,-1.4035,-1.403,-1.4032,-1.4047,-1.4039,-1.3981,-1.3972,-1.3964,-1.3959,-1.4048,-1.4048,-1.4101,-1.4102,-1.4102]},{"header":{"parameterUnit":"m.s-1","parameterCategory":1,"la1":30.2991,"la2":30.254,"lo1":-89.0895,"lo2":-89.0444,"dy":0.0017,"dx":0.0017,"nx":28,"ny":28,"refTime":"2024-05-03T03:00:00:Z","depth":0,"parameterNumber":3,"parameterNumberName":"V-component_of_WINDS"},"data":[0,0,0,0,0,0,0,0,0,0,0,0,0,0,0,0,0,0,0,0,0,0,0,0,0,0,0,0,0,0,0,0,0,0,0,0,0,0,0,0,0,0,0,0,0,0,0,0,0,0,0,0,0,0,0,0,0,0,2.3772,2.3773,0,2.3801,2.3801,2.3802,2.3804,2.3803,2.3803,2.3803,2.3832,2.3833,2.3834,0,0,0,0,0,0,0,0,0,0,0,0,0,2.372,2.3721,2.3772,2.3773,2.3773,2.3801,2.3801,2.3802,2.3804,2.3803,2.3803,2.3803,2.3831,2.3833,2.3834,0,0,0,0,0,0,0,0,0,0,0,0,0,2.3745,2.3722,2.3772,2.3777,2.3778,2.3801,2.3801,2.3802,2.3804,2.3803,2.3803,2.3802,2.3831,2.3833,2.3834,2.3854,0,0,2.3839,2.384,0,0,0,0,0,0,0,0,2.3744,2.3747,2.3776,2.3777,2.3778,2.3798,2.3794,2.3819,2.3804,2.3794,2.3803,2.3802,2.3821,2.3823,2.383,2.3855,2.3856,2.3839,2.384,2.3841,2.3841,0,0,0,0,0,0,0,2.3742,2.3746,2.3784,2.3777,2.3778,2.3779,2.3782,2.3799,2.381,2.3795,2.3795,2.3799,2.3821,2.3828,2.3831,2.3857,2.3839,2.3841,2.3842,2.3842,2.3901,2.3901,0,0,0,0,0,0,2.3739,2.3745,2.3783,2.3785,2.3759,2.378,2.3783,2.3792,2.381,2.3812,2.3799,2.3799,2.3826,2.3829,2.3832,2.3856,2.3841,2.3842,2.3843,2.39,2.3901,2.3902,0,0,0,0,0,0,2.3738,2.3743,2.3782,2.3765,2.377,2.3781,2.3791,2.3793,2.38,2.3813,2.3815,2.3804,2.3826,2.3829,2.3849,2.3857,2.3843,2.3845,2.39,2.39,2.3901,2.3905,0,0,0,0,0,0,2.3737,2.3742,2.375,2.3765,2.3771,2.3798,2.3792,2.3794,2.3803,2.3803,2.3818,2.382,2.3825,2.3846,2.385,2.3859,2.3846,2.3899,2.39,2.3901,2.3905,2.3906,2.3908,0,0,0,0,0,2.3735,2.3749,2.375,2.3754,2.378,2.3798,2.3802,2.3808,2.3803,2.3811,2.382,2.3819,2.3856,2.3848,2.3853,2.3862,2.3898,2.39,2.3901,2.3904,2.3906,2.3908,0,0,0,0,0,0,2.3734,2.3751,2.3752,2.3772,2.3784,2.3799,2.3808,2.381,2.3823,2.3822,2.3829,2.3833,2.3852,2.3859,2.385,2.3883,2.3877,2.3879,2.3877,2.388,2.3881,2.3879,2.3847,0,0,0,0,0,2.3736,2.375,2.3764,2.378,2.3786,2.3796,2.3804,2.3808,2.3821,2.3826,2.3835,2.3848,2.3862,2.3871,2.3885,2.3906,2.391,2.3915,2.3917,2.3918,2.392,2.3933,2.3936,2.3906,2.3906,2.3906,0,0,2.3741,2.3752,2.376,2.378,2.379,2.3804,2.38,2.3815,2.3826,2.3828,2.3847,2.3855,2.3869,2.3889,2.3899,2.3896,2.3929,2.392,2.3921,2.3922,2.3934,2.3937,2.394,2.3907,2.3907,2.3907,0,0,2.3756,2.3765,2.378,2.379,2.3805,2.3812,2.3816,2.3831,2.3837,2.3856,2.3858,2.3871,2.3895,2.3906,2.3914,2.3936,2.3937,2.394,2.3949,2.3961,2.3964,2.3966,2.3974,2.3977,2.3942,2.3942,2.3942,0,2.376,2.3781,2.3788,2.3803,2.3812,2.3816,2.3831,2.3841,2.3859,2.3866,2.3863,2.3894,2.3904,2.3927,2.3933,2.3939,2.3944,2.3938,2.3963,2.3965,2.3967,2.3975,2.3978,2.3942,2.3942,2.3942,2.3942,0,2.3785,2.38,2.381,2.3829,2.3839,2.3855,2.3864,2.3874,2.3878,2.3885,2.3906,2.3918,2.3935,2.3941,2.3944,2.3965,2.3963,2.3961,2.3955,2.397,2.3978,2.3981,2.3943,2.3943,2.3943,2.3943,0,0,2.3799,2.3823,2.3827,2.3836,2.3853,2.3865,2.3881,2.3898,2.3907,2.392,2.3934,2.3955,2.3954,2.3964,2.3969,2.398,2.3997,2.3977,2.3977,2.398,2.4022,2.4024,2.4027,2.3998,2.3998,2.3999,2.4021,0,2.3817,2.3846,2.3853,2.3878,2.3892,2.3896,2.391,2.3923,2.3931,2.3945,2.3953,2.3969,2.3966,2.3972,2.3983,2.3992,2.4006,2.3991,2.4011,2.4012,2.4008,2.4031,2.4032,2.4053,2.4024,2.4025,2.4025,0,2.3841,2.3856,2.3882,2.3899,2.3905,2.3918,2.3935,2.3948,2.3962,2.3968,2.3979,2.3983,2.4001,2.3994,2.4019,2.4009,2.4018,2.4024,2.4025,2.4027,2.4019,2.4034,2.406,2.4063,2.403,2.403,2.4029,0,2.385,2.3876,2.3895,2.3903,2.3923,2.3932,2.3941,2.3955,2.3965,2.398,2.3987,2.4004,2.4013,2.4026,2.4035,2.4029,2.406,2.4053,2.4065,2.4065,2.4071,2.407,2.4098,2.4076,2.4076,2.4076,2.4076,0,2.3869,2.3885,2.39,2.3911,2.393,2.3939,2.3957,2.3966,2.3979,2.3993,2.3998,2.4011,2.4022,2.4037,2.4044,2.4064,2.4068,2.4073,2.4075,2.4073,2.4072,2.4078,2.4077,2.4077,2.4077,2.4077,2.4077,0,2.3882,2.3892,2.3914,2.3931,2.3936,2.3949,2.3965,2.3977,2.3985,2.4003,2.4008,2.4022,2.404,2.405,2.4072,2.4077,2.41,2.4101,2.4095,2.4096,2.4107,2.4106,2.414,2.4145,2.4119,2.412,2.412,0,2.3893,2.3906,2.3925,2.3935,2.3944,2.396,2.3971,2.3981,2.3992,2.4011,2.4021,2.4039,2.4054,2.4083,2.4095,2.4113,2.4114,2.4125,2.4117,2.4115,2.4115,2.4114,2.4116,2.4127,2.4127,2.4127,2.4127,0,2.3913,2.3918,2.3933,2.3951,2.3964,2.3978,2.3992,2.4,2.4012,2.4025,2.4043,2.4055,2.4079,2.4097,2.4116,2.4126,2.4129,2.413,2.4133,2.4131,2.4128,2.4131,2.4099,2.4129,2.4129,2.4128,2.4128,2.4128,2.3926,2.3937,2.3953,2.3971,2.3983,2.3996,2.4009,2.4019,2.4035,2.4055,2.406,2.408,2.4096,2.4122,2.4132,2.4149,2.4147,2.4152,2.4153,2.4154,2.4155,2.4125,2.4152,2.4152,2.4152,2.4152,2.4152,0,2.3946,2.3957,2.3973,2.3993,2.4007,2.4009,2.4025,2.4036,2.4054,2.4069,2.4084,2.4106,2.4125,2.4139,2.4158,2.4168,2.417,2.4173,2.4172,2.4175,2.4155,2.4151,2.4171,2.4171,2.4171,2.4171,2.4171,2.4171,2.3958,2.3978,2.3985,2.4012,2.4023,2.4043,2.4052,2.4065,2.4077,2.4102,2.4117,2.4126,2.4141,2.4162,2.4179,2.4183,2.419,2.4193,2.4197,2.4178,2.4176,2.4174,2.417,2.4194,2.4194,2.4215,2.4215,2.4215]}]]